Temp
9 9 9 8 8 8 8 8 8 7 7 6 6 6 6 6 6 6 6 6 6 6 6 6 6 6 6 7 6 6 7 7 7 7 7 7 7 7 8 8 8 8 7
9 9 9 9 9 8 8 8 8 7 7 6 6 6 6 6 6 6 6 6 6 5 6 5 6 6 6 6 6 6 6 6 7 6 6 7 6 7 7 7 8 8 8
9 9 9 9 9 8 8 8 8 7 6 6 6 6 6 6 6 6 6 6 6 5 6 5 5 5 6 6 6 6 6 6 6 6 6 6 6 7 6 6 7 8 8
9 9 9 8 8 8 8 8 7 7 6 6 6 6 6 6 5 5 5 5 5 6 5 5 5 5 5 6 6 6 6 6 6 6 6 6 6 6 6 6 7 7 7
9 9 9 8 8 8 7 7 7 7 6 6 6 6 6 6 5 5 5 5 5 5 5 5 5 4 5 5 5 5 6 6 6 6 6 6 6 6 6 6 7 7 7
9 9 8 8 8 7 7 7 7 7 6 6 6 6 6 5 5 5 5 5 5 5 5 4 5 4 5 5 6 5 5 5 6 6 6 6 6 7 7 7 7 7 7
9 8 8 8 8 7 7 6 6 6 6 6 6 6 5 5 5 5 5 4 4 5 5 4 4 4 4 5 6 5 5 5 5 5 5 5 6 6 7 7 7 7 7
8 8 8 7 7 7 6 6 6 6 6 6 6 5 5 5 5 5 5 5 5 5 4 4 4 4 4 4 5 5 5 5 6 5 5 5 5 5 6 6 6 7 7
8 7 8 7 7 6 6 6 6 6 6 6 6 6 6 5 5 5 5 5 5 4 4 4 4 4 4 4 5 5 5 5 5 5 5 5 5 5 5 5 5 6 6
7 7 7 7 7 6 6 6 6 5 5 5 5 5 5 4 4 4 5 5 5 4 4 4 4 4 4 3 4 4 4 4 5 4 5 4 4 5 5 6 5 5 5
7 7 7 7 6 6 6 6 5 5 5 5 4 4 4 4 4 4 4 4 4 4 4 3 3 3 3 3 3 3 4 4 4 4 4 4 4 4 4 5 5 5 5
7 7 6 6 6 6 6 6 5 5 4 4 4 4 4 4 4 4 4 4 4 3 3 3 3 3 3 3 3 4 3 3 3 3 3 4 3 3 4 4 4 5 5
7 6 7 6 6 6 5 5 4 4 4 4 4 4 3 3 3 4 4 4 4 4 4 4 4 3 3 3 3 3 3 3 3 3 3 4 3 3 4 3 4 4 4
6 6 6 6 6 6 5 4 4 3 3 3 2 4 4 3 3 3 3 4 4 4 3 4 4 4 3 3 3 3 3 3 3 3 2 3 4 3 3 3 4 4 4
6 6 6 6 5 4 3 3 2 3 2 2 3 3 4 3 3 3 3 3 3 3 3 3 3 3 3 3 3 3 3 3 3 3 3 3 3 4 4 3 4 4 4
5 5 5 4 4 4 4 2 2 3 3 2 2 2 2 3 2 3 3 3 3 3 3 3 3 3 3 3 3 3 3 3 3 3 3 3 3 3 3 3 3 4 4
5 5 5 4 3 3 2 2 1 2 1 1 1 2 2 3 3 3 2 2 2 2 3 3 3 3 2 2 2 3 3 3 3 3 3 2 3 3 3 3 3 3 3
4 4 4 4 4 4 3 3 2 2 2 1 1 1 1 2 3 3 3 3 2 1 2 2 2 2 3 3 2 2 2 2 3 3 3 2 3 3 3 3 3 2 3
4 4 4 4 3 3 2 2 2 1 1 2 1 1 -0 0 2 3 2 3 2 1 1 1 1 2 2 2 3 2 2 2 2 2 2 2 2 2 2 3 3 2 2
3 3 3 3 3 3 3 2 1 1 0 1 0 0 -0 0 2 3 3 2 1 0 -0 0 0 0 0 1 1 1 1 1 2 2 2 2 2 2 2 2 3 3 3
2 2 3 2 2 2 2 2 1 1 1 1 0 0 -1 -1 2 2 2 2 1 -1 1 -0 1 0 -0 -0 0 0 0 1 1 2 2 2 2 2 2 2 2 2 3
2 2 2 2 2 1 1 1 1 -1 0 -0 -0 -0 -1 0 0 2 2 1 2 -2 -2 1 -1 -0 0 1 -1 -1 -1 -0 1 1 2 2 2 1 2 2 2 2 2
1 1 1 1 1 1 1 1 0 -0 -0 -0 -1 -1 -1 -1 -1 -1 1 1 1 -2 -2 -2 0 -1 -1 -1 -1 -1 -1 -1 -0 0 1 1 1 1 1 1 1 1 1
1 1 0 0 0 0 -0 -1 0 -1 -1 -1 -2 -2 -1 -2 -2 -2 -2 -1 0 -2 -3 -3 -1 -1 -1 -1 -3 -3 -3 -2 -1 -1 -0 0 1 1 1 1 1 1 1
1 0 -0 -0 -1 -1 -0 -0 -2 -2 -2 -2 -2 -2 -2 -2 -3 -4 -3 -3 -2 -3 -4 -4 -4 -2 -2 -2 -2 -2 -2 -2 -3 -2 -2 -1 -1 -0 -0 0 0 0 0
0 -0 -1 -1 -1 -1 -2 -2 -3 -3 -3 -2 -2 -3 -3 -3 -3 -3 -4 -4 -5 -4 -5 -5 -4 -4 -4 -3 -4 -4 -3 -3 -3 -3 -3 -2 -2 -1 -1 -1 -1 -0 -0
Height
3151 3152 3153 3154 3155 3157 3158 3158 3159 3160 3161 3163 3165 3165 3167 3167 3168 3169 3170 3170 3171 3171 3173 3174 3175 3176 3178 3179 3179 3181 3182 3184 3185 3186 3188 3189 3190 3190 3190 3191 3191 3192 3193
3149 3151 3152 3154 3155 3156 3157 3159 3159 3160 3161 3163 3164 3166 3168 3168 3169 3169 3170 3171 3170 3172 3173 3174 3176 3177 3178 3179 3181 3182 3183 3185 3186 3188 3189 3190 3191 3192 3192 3193 3194 3194 3194
3147 3149 3151 3153 3154 3156 3157 3158 3159 3160 3161 3163 3165 3166 3167 3169 3170 3171 3171 3171 3172 3172 3172 3175 3176 3178 3179 3180 3181 3183 3184 3186 3187 3189 3190 3191 3192 3193 3194 3195 3195 3196 3196
3145 3147 3150 3152 3153 3155 3157 3158 3159 3161 3162 3163 3164 3166 3167 3169 3170 3171 3171 3172 3173 3172 3171 3173 3176 3179 3180 3181 3183 3184 3185 3186 3188 3189 3191 3192 3193 3194 3195 3196 3197 3197 3198
3143 3146 3148 3150 3152 3154 3156 3157 3159 3160 3162 3163 3164 3166 3167 3169 3170 3171 3172 3173 3174 3173 3173 3175 3175 3179 3181 3182 3184 3185 3186 3188 3189 3190 3191 3193 3194 3195 3196 3197 3198 3198 3200
3142 3144 3146 3149 3151 3152 3154 3157 3159 3160 3161 3163 3164 3166 3167 3169 3171 3172 3173 3174 3174 3177 3175 3176 3177 3179 3181 3183 3184 3186 3188 3189 3190 3191 3192 3193 3194 3195 3196 3198 3199 3199 3200
3140 3142 3144 3147 3149 3151 3153 3156 3158 3160 3161 3163 3164 3166 3167 3169 3171 3172 3174 3174 3174 3176 3175 3177 3179 3179 3181 3183 3185 3186 3188 3189 3191 3192 3193 3194 3195 3196 3197 3198 3199 3200 3201
3138 3140 3143 3145 3148 3150 3152 3155 3157 3159 3161 3162 3164 3165 3166 3168 3171 3173 3174 3175 3175 3176 3176 3177 3178 3180 3182 3184 3185 3186 3189 3190 3191 3192 3193 3194 3195 3196 3197 3199 3199 3200 3201
3135 3138 3141 3144 3146 3149 3151 3153 3155 3157 3159 3161 3164 3165 3167 3169 3170 3172 3174 3175 3176 3177 3178 3178 3178 3179 3182 3185 3186 3187 3190 3191 3191 3192 3194 3195 3195 3197 3198 3199 3200 3201 3202
3132 3135 3138 3141 3144 3147 3149 3150 3153 3156 3159 3161 3163 3165 3167 3168 3171 3173 3174 3175 3176 3177 3178 3178 3178 3178 3181 3184 3185 3188 3190 3191 3192 3193 3194 3195 3196 3197 3198 3199 3201 3202 3203
3128 3131 3135 3138 3141 3143 3146 3148 3151 3154 3157 3160 3161 3164 3166 3168 3170 3172 3174 3176 3177 3178 3178 3178 3179 3179 3180 3183 3185 3188 3190 3191 3192 3194 3195 3196 3196 3198 3199 3200 3201 3202 3203
3124 3126 3131 3135 3138 3141 3144 3146 3148 3151 3155 3157 3159 3162 3163 3166 3169 3171 3173 3174 3176 3177 3177 3179 3180 3182 3183 3184 3186 3188 3189 3190 3192 3192 3194 3195 3196 3197 3199 3201 3202 3203 3204
3120 3122 3126 3130 3133 3138 3141 3144 3145 3148 3151 3154 3156 3159 3161 3163 3166 3169 3171 3173 3174 3176 3177 3179 3180 3181 3183 3184 3185 3187 3189 3191 3192 3194 3194 3195 3196 3199 3200 3201 3202 3202 3203
3115 3117 3120 3124 3127 3132 3136 3139 3142 3145 3147 3150 3154 3155 3158 3160 3163 3166 3169 3171 3173 3175 3176 3178 3179 3181 3182 3183 3185 3187 3189 3190 3192 3193 3194 3196 3198 3199 3200 3201 3202 3202 3203
3110 3113 3116 3120 3123 3127 3131 3135 3137 3140 3144 3145 3149 3150 3154 3156 3160 3163 3166 3169 3171 3173 3174 3176 3178 3179 3180 3182 3183 3184 3186 3187 3189 3192 3193 3195 3196 3198 3199 3200 3200 3200 3202
3105 3109 3112 3116 3119 3122 3126 3130 3132 3136 3140 3141 3145 3148 3149 3152 3155 3159 3162 3165 3168 3170 3172 3174 3175 3177 3179 3180 3182 3183 3185 3186 3187 3188 3190 3192 3195 3197 3198 3198 3199 3199 3200
3099 3104 3108 3112 3115 3119 3122 3125 3128 3132 3134 3136 3140 3142 3144 3147 3150 3153 3157 3160 3163 3166 3168 3171 3172 3174 3176 3178 3180 3181 3182 3184 3185 3187 3189 3190 3192 3194 3196 3196 3197 3198 3199
3092 3098 3102 3107 3109 3112 3117 3120 3124 3127 3130 3132 3135 3138 3139 3141 3145 3149 3151 3154 3158 3162 3165 3167 3168 3170 3172 3174 3175 3177 3179 3181 3182 3184 3186 3188 3189 3191 3193 3194 3195 3196 3198
3086 3091 3097 3101 3105 3109 3111 3115 3117 3121 3125 3127 3131 3132 3134 3136 3138 3142 3146 3149 3151 3155 3159 3163 3165 3166 3168 3170 3171 3173 3175 3177 3178 3180 3182 3184 3186 3187 3189 3189 3192 3194 3195
3079 3084 3089 3093 3099 3102 3106 3107 3113 3116 3119 3122 3125 3127 3129 3130 3133 3137 3141 3144 3147 3150 3153 3157 3159 3162 3164 3166 3167 3168 3170 3173 3174 3176 3178 3180 3182 3183 3184 3185 3186 3189 3191
3074 3078 3082 3087 3091 3095 3098 3102 3106 3110 3114 3115 3119 3121 3124 3125 3128 3132 3135 3138 3141 3144 3148 3151 3154 3156 3157 3161 3162 3163 3165 3167 3169 3172 3174 3175 3177 3179 3180 3181 3182 3183 3185
3065 3070 3075 3080 3084 3089 3093 3095 3100 3103 3108 3111 3112 3115 3117 3119 3122 3125 3129 3132 3135 3138 3141 3145 3147 3151 3152 3154 3156 3158 3160 3163 3164 3166 3168 3170 3172 3173 3175 3176 3177 3178 3180
3058 3063 3068 3073 3078 3082 3087 3091 3095 3096 3100 3104 3106 3109 3112 3114 3116 3118 3122 3126 3129 3132 3136 3139 3141 3144 3147 3150 3150 3153 3154 3154 3159 3160 3162 3164 3166 3168 3169 3170 3171 3172 3173
3050 3056 3060 3065 3071 3075 3079 3084 3088 3091 3094 3097 3100 3104 3107 3109 3111 3113 3116 3118 3122 3125 3130 3133 3136 3139 3140 3142 3145 3146 3148 3150 3152 3155 3157 3158 3160 3161 3163 3164 3165 3166 3167
3043 3048 3052 3057 3063 3068 3073 3078 3081 3085 3090 3094 3097 3098 3101 3104 3107 3109 3110 3112 3115 3119 3123 3125 3128 3131 3134 3136 3138 3140 3142 3144 3145 3147 3149 3152 3153 3154 3156 3158 3159 3160 3160
3033 3039 3045 3050 3055 3061 3067 3071 3076 3080 3084 3087 3090 3092 3095 3099 3102 3103 3106 3107 3110 3112 3116 3119 3122 3123 3125 3128 3131 3133 3135 3137 3139 3140 3142 3144 3146 3148 3149 3150 3152 3152 3153
Wind_Speed
11 10 8 9 9 7 6 7 8 10 12 13 12 10 7 5 4 4 5 7 8 9 10 10 10 10 12 13 14 15 16 16 16 16 15 15 16 16 17 16 16 17 17
8 11 9 10 10 9 7 7 8 10 13 13 11 9 7 6 5 5 6 8 9 10 10 10 11 12 13 14 14 16 17 16 16 16 16 16 16 16 17 17 15 15 14
14 13 9 11 10 10 9 9 8 9 13 12 11 10 8 7 5 5 9 8 8 10 12 13 13 15 14 15 15 15 15 14 15 15 15 15 15 15 14 15 15 13 13
17 15 11 11 10 9 11 11 10 9 12 12 10 10 8 7 8 8 4 10 9 6 16 14 17 15 14 14 15 15 15 14 14 15 14 13 13 11 10 10 11 11 11
17 16 14 13 11 11 14 13 11 11 12 12 13 11 9 8 10 9 5 2 4 2 5 11 14 14 12 12 13 13 14 14 14 13 13 11 9 8 7 7 7 7 9
19 17 16 15 11 14 15 15 13 12 14 14 15 12 12 11 12 10 7 9 8 12 6 8 11 8 7 9 11 12 12 13 13 13 11 10 8 7 6 6 5 5 6
21 19 19 18 10 14 16 17 15 13 14 16 15 15 13 13 12 10 10 9 12 13 11 8 12 12 13 13 13 12 12 11 11 12 10 9 8 7 6 6 6 6 6
21 22 22 20 13 15 17 17 16 15 16 17 17 16 15 15 11 11 10 11 11 12 8 7 13 11 15 15 16 13 11 12 11 11 10 8 8 7 6 6 5 5 5
23 24 23 22 18 18 18 18 18 18 19 19 18 15 12 10 9 9 9 9 10 9 9 8 9 12 14 19 16 14 13 14 13 12 11 10 8 7 6 6 6 5 4
26 26 25 25 22 21 21 21 20 20 18 19 19 16 16 13 11 10 10 9 7 7 6 6 5 6 17 22 22 17 13 13 13 12 11 10 11 10 8 7 6 4 4
26 27 28 27 25 25 23 23 23 24 21 22 21 20 18 16 14 13 11 7 6 6 5 5 3 9 18 13 16 19 14 12 12 11 11 12 13 10 8 9 7 5 4
23 24 26 29 28 26 24 25 25 26 26 26 24 23 22 20 18 17 15 13 12 12 12 11 9 9 11 12 16 17 20 18 13 11 10 7 8 7 6 2 4 4 2
27 26 26 27 29 30 28 27 28 27 28 28 28 27 25 24 22 20 18 17 15 14 12 12 12 10 11 11 10 14 13 9 15 12 6 6 6 4 2 1 1 1 3
33 31 29 30 30 29 31 31 31 29 30 29 27 29 29 27 26 24 22 20 19 16 15 14 13 13 12 12 14 12 15 14 11 8 10 7 7 3 4 3 4 5 6
35 32 30 30 30 31 29 34 33 31 28 26 31 32 25 31 30 28 26 24 22 20 19 17 16 16 15 15 14 12 15 18 18 16 14 12 10 9 9 8 6 8 10
34 33 33 39 32 33 33 31 27 31 23 26 26 22 29 29 32 32 30 28 26 24 23 21 20 19 18 17 17 17 17 14 14 13 14 13 14 15 15 13 10 6 7
34 34 31 32 36 32 31 31 30 32 28 28 26 34 34 30 27 31 31 31 29 28 26 25 24 22 21 20 19 19 19 20 20 18 18 17 20 16 16 17 15 12 10
35 34 34 34 32 31 30 29 29 29 20 30 28 25 29 31 30 26 29 33 32 31 29 29 28 28 27 25 24 21 20 20 22 23 22 19 22 20 22 21 18 16 16
36 35 34 32 34 32 30 36 27 30 35 32 28 31 34 30 31 30 28 30 32 33 32 31 30 30 29 28 26 25 22 21 21 23 23 24 24 23 23 25 24 24 25
36 37 35 35 34 34 30 32 32 41 38 30 29 29 32 38 34 30 28 29 33 35 35 32 32 32 30 31 30 28 26 24 23 23 24 24 24 24 24 25 25 26 25
39 39 38 37 37 35 35 36 33 30 35 37 34 31 35 34 33 29 26 28 30 30 29 35 31 32 33 33 33 32 30 28 26 25 25 26 26 27 27 27 27 27 26
43 42 41 40 39 38 38 33 37 36 38 27 35 37 38 38 34 31 28 28 29 30 32 34 36 36 31 35 33 35 35 32 30 29 28 28 28 28 29 29 29 29 29
45 42 41 40 41 40 39 39 41 39 34 39 36 34 34 37 35 31 30 29 28 33 32 32 35 33 36 35 30 37 37 35 32 31 31 31 31 31 31 31 31 31 30
45 45 44 43 43 42 40 36 40 42 42 38 30 30 32 28 38 35 33 30 29 32 36 38 32 37 37 41 41 35 34 36 36 34 32 32 32 33 32 32 32 32 32
43 45 45 44 42 43 40 48 44 40 37 40 34 32 33 29 32 37 34 31 28 29 35 39 39 42 39 38 38 33 33 33 34 36 33 32 33 33 33 33 34 34 34
44 46 45 44 43 43 39 39 39 41 39 39 36 35 37 39 40 36 37 34 30 28 32 35 38 34 38 37 35 41 38 33 34 35 37 35 34 33 33 33 34 34 35
Wind_Direction
215 223 224 195 180 170 152 145 144 154 158 162 161 157 156 164 179 162 170 180 170 159 150 145 143 138 134 134 135 134 134 134 132 128 123 116 113 111 108 105 105 111 111
198 203 195 184 182 179 171 161 151 156 162 162 167 165 161 156 169 187 169 164 167 170 166 154 145 137 138 138 131 137 138 137 138 136 131 128 120 111 106 102 103 104 106
194 177 184 185 191 203 184 168 158 164 168 167 170 176 172 170 166 169 172 162 185 191 176 153 138 130 133 137 140 139 140 139 139 139 136 133 128 119 108 101 98 97 100
189 189 185 190 202 198 189 174 163 168 172 172 173 175 167 154 143 150 146 150 148 174 192 165 137 137 138 138 137 141 145 143 140 139 143 142 136 129 119 111 101 95 92
194 191 192 192 191 185 188 183 174 168 171 174 170 165 157 142 131 139 113 78 215 190 161 147 154 139 141 148 146 146 146 148 150 152 152 155 153 151 145 132 121 108 96
200 198 198 192 195 189 189 190 183 177 176 172 167 168 158 144 136 136 122 113 116 183 158 144 147 164 165 171 164 156 154 153 150 146 148 158 167 168 168 162 157 141 118
201 207 200 191 192 190 187 191 188 185 181 175 173 169 171 160 147 139 133 123 114 145 151 197 185 169 184 181 170 163 166 162 160 150 147 147 146 145 146 152 159 164 154
210 208 202 198 201 188 186 191 192 188 186 180 177 174 170 162 156 144 141 135 120 118 134 194 200 191 186 173 164 150 154 159 159 158 153 154 154 144 140 130 128 135 148
210 209 205 203 192 188 191 195 197 193 190 192 187 182 187 182 175 160 154 144 140 137 127 118 176 190 191 177 154 145 152 153 137 131 139 146 149 156 152 142 138 137 136
210 211 210 206 199 191 195 200 203 198 193 191 187 187 186 190 184 174 168 163 157 145 136 126 112 171 193 174 176 169 152 144 144 141 138 133 133 130 140 153 159 148 139
209 213 212 214 203 204 206 209 206 203 200 198 199 197 201 204 199 191 183 179 168 159 145 158 160 139 153 161 162 168 175 169 157 147 125 132 129 110 114 123 126 157 167
206 213 214 217 214 217 213 211 211 210 206 208 211 207 208 203 204 202 197 193 185 179 186 184 189 186 186 198 207 204 204 205 178 161 156 179 96 77 63 106 113 100 165
215 219 222 219 217 215 212 213 215 216 212 217 215 214 213 215 210 210 206 207 205 204 205 203 201 206 205 192 184 174 184 184 214 183 184 167 142 118 110 181 204 169 227
215 219 223 220 222 219 215 217 214 216 221 218 234 227 219 219 217 215 213 213 215 214 217 212 211 213 215 217 205 201 203 204 200 202 212 226 186 215 233 237 235 219 248
215 217 214 217 219 221 220 213 219 220 220 224 218 232 224 220 219 219 216 217 218 220 223 224 218 218 221 221 226 225 216 220 209 210 223 225 205 215 245 250 247 249 242
214 214 212 213 213 215 221 221 219 235 230 237 221 216 237 220 225 222 220 217 221 224 225 228 229 224 223 227 230 230 229 235 238 228 218 231 236 228 233 240 243 235 236
211 211 213 205 224 218 215 222 218 225 227 224 234 222 230 233 226 231 228 230 222 225 227 229 232 235 231 229 231 234 234 235 234 236 228 227 236 230 241 241 248 242 238
210 211 214 218 217 218 218 222 225 227 227 226 228 232 248 237 232 227 232 232 232 227 232 234 233 235 238 237 233 236 240 241 238 235 234 236 240 237 240 243 243 245 222
207 211 213 214 214 218 217 225 221 213 226 231 232 235 236 246 242 232 229 231 234 231 229 234 240 243 242 242 243 239 244 249 245 239 237 236 237 239 240 243 243 235 245
204 205 207 211 215 220 231 212 222 227 233 223 227 227 233 246 247 247 239 232 224 231 229 235 238 241 245 251 247 243 241 246 248 245 240 238 238 239 239 242 244 242 241
212 210 211 212 216 220 219 227 214 233 211 224 240 238 241 255 255 250 243 237 231 227 228 232 235 244 250 241 246 249 244 244 246 245 241 239 239 239 241 243 244 246 246
213 215 214 215 218 220 221 224 212 229 234 230 223 225 243 249 253 254 247 238 235 228 229 227 243 231 237 244 249 250 249 246 243 245 244 241 238 240 241 242 245 248 251
217 217 218 219 221 222 223 219 218 220 232 226 231 240 253 257 256 255 251 245 236 232 225 230 227 246 237 240 249 251 251 248 245 246 247 246 244 242 242 245 247 250 252
220 220 220 222 222 222 224 217 230 237 223 236 246 246 241 241 260 261 259 251 242 228 227 227 233 235 238 243 251 255 254 248 247 249 248 249 249 249 248 248 250 252 254
222 223 221 220 220 223 219 216 226 233 237 233 231 231 241 254 258 263 262 260 250 228 229 234 236 232 236 237 241 244 241 248 251 248 250 249 249 249 249 250 251 252 254
219 221 221 219 220 222 219 221 225 227 230 229 234 249 244 249 251 253 263 263 254 244 232 237 233 237 242 247 243 239 245 245 247 250 252 253 254 253 253 253 254 254 255